Tracking 28790 objects as of 19-Apr-2024
HD Live streaming from Space Station
objects crossing your sky now

SL-8 DEB

Track SL-8 DEB now!
10-day predictions


NORAD ID: 21955
Int'l Code: 1991-009CF
Perigee: 1,520.6 km
Apogee: 1,782.1 km
Inclination: 74.3 °
Period: 119.2 minutes
Semi major axis: 8022 km
RCS: 0.0532 m2 (small)
Launch date: February 12, 1991
Source: Commonwealth of Independent States (former USSR) (CIS)
Launch site: PLESETSK MISSILE AND SPACE COMPLEX (PKMTR)

Note: This is SATELLITE DEBRIS
Your satellite tracking list
Your tracking list is empty




NASA's NSSDC Master Catalog

Two Line Element Set (TLE):
1 21955U 91009CF  24109.72199104  .00000376  00000-0  41812-2 0  9994
2 21955  74.3039 323.7108 0162940  84.2921 354.3151 12.08233752459937
Source of the keplerian elements: AFSPC